Tracking 29528 objects as of 12-Sep-2024
HD Live streaming from Space Station
objects crossing your sky now

STARLINK-2039

Track STARLINK-2039 now!
10-day predictions
STARLINK-2039 is classified as:


NORAD ID: 47655
Int'l Code: 2021-012AM
Perigee: 553.1 km
Apogee: 555.0 km
Inclination: 53.1 °
Period: 95.6 minutes
Semi major axis: 6925 km
RCS: Unknown
Launch date: February 16, 2021
Source: United States (US)
Launch site: AIR FORCE EASTERN TEST RANGE (AFETR)
Your satellite tracking list
Your tracking list is empty




NASA's NSSDC Master Catalog

Two Line Element Set (TLE):
1 47655U 21012AM  24256.49840863  .00096472  00000-0  63912-2 0  9995
2 47655  53.0559 350.1003 0001394 110.6688 249.4451 15.06494379197593
Source of the keplerian elements: AFSPC